Location: Austin
(30.3000°N, 97.7500°W)
Time: 08:15:57
(UTC-05:00)

Cosmos 2082 Rocket - Pass Details

Date: 19 September 2023
Orbit: 831 x 855 km, 71.0° (Epoch: 25 September)

Event Time Altitude Azimuth Distance (km) Brightness Sun altitude
Exits shadow 06:09:41 13° 302° (WNW) 2,301 4.0 -15.4°
Maximum altitude 06:09:45 13° 303° (WNW) 2,301 4.1 -15.4°
Drops below altitude 10° 06:12:07 10° 328° (NNW) 2,486 4.4 -14.9°
Sets 06:16:15 0° 357° (N) 3,426 5.5 -14.0°
